| time (UTC) | temp C | wind direction | speed KPH | gust KPH | rain 1hr cm | rain 24hr cm | rain mn cm | humidity % | barometer mb |
| 20260507023032 | 10 | 114 | 1.6 | 3.2 | 0.00 | 0.97 | 0.97 | 98 | 1007.0 |
| 20260507022528 | 10 | 20 | 3.2 | 3.2 | 0.00 | 0.97 | 0.97 | 99 | 1007.0 |
| 20260507022023 | 10 | 19 | 1.6 | 1.6 | 0.00 | 0.97 | 0.97 | 99 | 1007.1 |
| 20260507021520 | 10 | 52 | 0.0 | 0.0 | 0.00 | 0.97 | 0.97 | 99 | 1006.9 |
| 20260507021017 | 11 | 42 | 1.6 | 1.6 | 0.00 | 0.97 | 0.97 | 99 | 1006.9 |
| 20260507020514 | 11 | 359 | 0.0 | 1.6 | 0.00 | 0.97 | 0.97 | 99 | 1006.5 |
| 20260507020010 | 11 | 11 | 0.0 | 0.0 | 0.18 | 0.97 | 0.97 | 99 | 1006.6 |
| 20260507015509 | 11 | 24 | 1.6 | 1.6 | 0.18 | 0.97 | 0.97 | 99 | 1006.3 |
| 20260507015006 | 11 | 278 | 1.6 | 3.2 | 0.00 | 0.94 | 0.94 | 99 | 1006.2 |
| 20260507014502 | 11 | 311 | 3.2 | 4.8 | 0.00 | 0.94 | 0.94 | 99 | 1006.6 |
| 20260507013958 | 11 | 309 | 3.2 | 4.8 | 0.00 | 0.94 | 0.94 | 99 | 1006.3 |
| 20260507013455 | 11 | 306 | 4.8 | 4.8 | 0.00 | 0.94 | 0.94 | 99 | 1006.6 |
| 20260507012952 | 11 | 334 | 3.2 | 3.2 | 0.00 | 0.94 | 0.94 | 99 | 1006.5 |
| 20260507012449 | 12 | 45 | 1.6 | 1.6 | 0.00 | 0.94 | 0.94 | 99 | 1006.4 |
| 20260507011946 | 12 | 297 | 3.2 | 3.2 | 0.00 | 0.94 | 0.94 | 99 | 1006.3 |
| 20260507011443 | 12 | 0 | 0.0 | 1.6 | 0.00 | 0.94 | 0.94 | 99 | 1006.3 |
| 20260507010938 | 12 | 52 | 1.6 | 1.6 | 0.00 | 0.94 | 0.94 | 99 | 1005.9 |
| 20260507010433 | 12 | 17 | 1.6 | 1.6 | 0.00 | 0.94 | 0.94 | 99 | 1006.0 |
| 20260507005930 | 12 | 39 | 1.6 | 3.2 | 0.00 | 0.94 | 0.94 | 99 | 1006.0 |
| 20260507005427 | 12 | 24 | 0.0 | 0.0 | 0.00 | 0.94 | 0.94 | 99 | 1006.1 |
| 20260507004924 | 12 | 25 | 0.0 | 0.0 | 0.00 | 0.94 | 0.94 | 99 | 1006.2 |
| 20260507004421 | 12 | 328 | 1.6 | 1.6 | 0.00 | 0.94 | 0.94 | 99 | 1006.2 |
| 20260507003918 | 13 | 4 | 0.0 | 0.0 | 0.00 | 0.94 | 0.94 | 99 | 1005.8 |
| 20260507003413 | 13 | 305 | 4.8 | 8.0 | 0.89 | 0.94 | 0.94 | 99 | 1005.7 |
| 20260507002908 | 14 | 338 | 3.2 | 3.2 | 0.79 | 0.91 | 0.91 | 99 | 1006.1 |
| 20260507002405 | 15 | 9 | 0.0 | 1.6 | 0.00 | 0.79 | 0.79 | 99 | 1005.5 |
| 20260507001902 | 15 | 145 | 1.6 | 1.6 | 0.00 | 0.79 | 0.79 | 99 | 1005.4 |
| 20260507001359 | 15 | 216 | 3.2 | 3.2 | 0.00 | 0.79 | 0.79 | 99 | 1005.4 |
| 20260507000856 | 15 | 313 | 1.6 | 1.6 | 0.00 | 0.79 | 0.79 | 99 | 1005.2 |
| 20260507000351 | 15 | 27 | 0.0 | 1.6 | 0.00 | 0.79 | 0.79 | 99 | 1005.4 |
| 20260506235848 | 14 | 239 | 1.6 | 3.2 | 0.00 | 0.79 | 0.79 | 99 | 1005.2 |
| 20260506235345 | 14 | 255 | 1.6 | 1.6 | 0.00 | 0.79 | 0.79 | 99 | 1005.0 |
| 20260506234840 | 14 | 333 | 1.6 | 1.6 | 0.00 | 0.79 | 0.79 | 99 | 1005.2 |
| 20260506234339 | 14 | 324 | 1.6 | 1.6 | 0.00 | 0.79 | 0.79 | 99 | 1005.2 |
| 20260506233836 | 14 | 52 | 0.0 | 1.6 | 0.00 | 0.79 | 0.79 | 99 | 1005.3 |
| 20260506233331 | 14 | 51 | 0.0 | 1.6 | 0.00 | 0.79 | 0.79 | 99 | 1005.1 |
| 20260506232829 | 14 | 1 | 0.0 | 1.6 | 0.00 | 0.79 | 0.79 | 99 | 1005.1 |
| 20260506232325 | 14 | 16 | 0.0 | 0.0 | 0.00 | 0.79 | 0.79 | 99 | 1005.1 |
| 20260506231821 | 14 | 21 | 0.0 | 0.0 | 0.00 | 0.79 | 0.79 | 99 | 1005.2 |
| 20260506231319 | 14 | 59 | 1.6 | 1.6 | 0.00 | 0.79 | 0.79 | 99 | 1005.1 |
| 20260506230816 | 14 | 12 | 0.0 | 0.0 | 0.00 | 0.79 | 0.79 | 99 | 1005.2 |
| 20260506230313 | 14 | 154 | 1.6 | 1.6 | 0.00 | 0.79 | 0.79 | 99 | 1005.0 |
| 20260506225809 | 14 | 79 | 1.6 | 1.6 | 0.00 | 0.79 | 0.79 | 99 | 1004.8 |
| 20260506225307 | 15 | 82 | 0.0 | 0.0 | 0.00 | 0.79 | 0.79 | 99 | 1004.9 |
| 20260506224803 | 15 | 36 | 0.0 | 0.0 | 0.00 | 0.79 | 0.79 | 99 | 1004.9 |
| 20260506224300 | 15 | 50 | 0.0 | 1.6 | 0.00 | 0.79 | 0.79 | 99 | 1004.9 |
| 20260506223756 | 15 | 45 | 0.0 | 0.0 | 0.00 | 0.79 | 0.79 | 99 | 1004.9 |
| 20260506223252 | 15 | 175 | 3.2 | 3.2 | 0.00 | 0.79 | 0.79 | 99 | 1004.9 |
| 20260506222749 | 15 | 166 | 1.6 | 1.6 | 0.00 | 0.79 | 0.79 | 99 | 1004.9 |
| 20260506222244 | 15 | 353 | 0.0 | 1.6 | 0.00 | 0.79 | 0.79 | 99 | 1004.9 |
| 20260506221743 | 15 | 223 | 1.6 | 1.6 | 0.18 | 0.79 | 0.79 | 99 | 1004.7 |
| 20260506221240 | 15 | 21 | 0.0 | 0.0 | 0.18 | 0.79 | 0.79 | 99 | 1004.6 |
| 20260506220737 | 15 | 16 | 0.0 | 0.0 | 0.00 | 0.76 | 0.76 | 99 | 1004.9 |
| 20260506220232 | 15 | 192 | 1.6 | 3.2 | 0.00 | 0.76 | 0.76 | 99 | 1005.0 |
| 20260506215729 | 15 | 67 | 1.6 | 1.6 | 0.13 | 0.76 | 0.76 | 99 | 1004.9 |
| 20260506215225 | 15 | 103 | 1.6 | 1.6 | 0.43 | 0.76 | 0.76 | 99 | 1004.9 |
| 20260506214722 | 15 | 23 | 0.0 | 0.0 | 0.30 | 0.74 | 0.74 | 99 | 1004.7 |
| 20260506214219 | 15 | 352 | 1.6 | 1.6 | 0.30 | 0.71 | 0.71 | 99 | 1004.7 |
| 20260506213717 | 14 | 17 | 0.0 | 0.0 | 0.48 | 0.69 | 0.69 | 99 | 1004.9 |
| 20260506213214 | 14 | 46 | 0.0 | 1.6 | 0.48 | 0.64 | 0.64 | 99 | 1004.9 |
| 20260506212711 | 14 | 42 | 1.6 | 3.2 | 0.61 | 0.61 | 0.61 | 99 | 1005.1 |
| 20260506212206 | 14 | 59 | 0.0 | 1.6 | 0.61 | 0.56 | 0.56 | 99 | 1004.8 |
| 20260506211702 | 14 | 33 | 0.0 | 0.0 | 0.48 | 0.51 | 0.51 | 99 | 1005.0 |
| 20260506211158 | 14 | 357 | 0.0 | 1.6 | 0.48 | 0.46 | 0.46 | 99 | 1005.1 |
| 20260506210655 | 14 | 281 | 1.6 | 1.6 | 0.30 | 0.43 | 0.43 | 99 | 1005.0 |
| 20260506210152 | 14 | 181 | 3.2 | 3.2 | 0.00 | 0.38 | 0.38 | 99 | 1005.1 |
| 20260506205650 | 14 | 0 | 0.0 | 0.0 | 0.00 | 0.38 | 0.38 | 99 | 1005.0 |
| 20260506205144 | 14 | 15 | 1.6 | 1.6 | 0.13 | 0.38 | 0.38 | 99 | 1004.9 |
| 20260506204642 | 14 | 23 | 0.0 | 0.0 | 0.13 | 0.38 | 0.38 | 99 | 1004.9 |
| 20260506204139 | 14 | 357 | 1.6 | 1.6 | 0.00 | 0.36 | 0.36 | 99 | 1005.1 |
| 20260506203637 | 14 | 170 | 1.6 | 1.6 | 0.00 | 0.36 | 0.36 | 99 | 1005.2 |
| 20260506203133 | 14 | 51 | 1.6 | 1.6 | 0.00 | 0.36 | 0.36 | 99 | 1005.1 |
| 20260506202632 | 14 | 273 | 1.6 | 3.2 | 0.00 | 0.36 | 0.36 | 99 | 1005.1 |
| 20260506202127 | 14 | 198 | 6.4 | 9.7 | 0.00 | 0.36 | 0.36 | 99 | 1005.1 |
| 20260506201625 | 14 | 193 | 4.8 | 4.8 | 0.18 | 0.36 | 0.36 | 99 | 1005.3 |
| 20260506201121 | 14 | 108 | 4.8 | 4.8 | 0.18 | 0.36 | 0.36 | 99 | 1005.2 |
| 20260506200618 | 14 | 197 | 1.6 | 3.2 | 0.00 | 0.33 | 0.33 | 99 | 1005.5 |
| 20260506200115 | 14 | 211 | 1.6 | 1.6 | 0.00 | 0.33 | 0.33 | 99 | 1005.3 |
| 20260506195611 | 14 | 193 | 1.6 | 1.6 | 0.13 | 0.33 | 0.33 | 99 | 1005.5 |
| 20260506195108 | 14 | 234 | 3.2 | 3.2 | 0.13 | 0.33 | 0.33 | 99 | 1005.4 |
| 20260506194605 | 14 | 222 | 0.0 | 1.6 | 0.00 | 0.30 | 0.30 | 99 | 1005.6 |
| 20260506194101 | 14 | 153 | 3.2 | 3.2 | 0.00 | 0.30 | 0.30 | 99 | 1005.8 |
| 20260506193559 | 14 | 2 | 0.0 | 1.6 | 0.18 | 0.30 | 0.30 | 99 | 1005.6 |
| 20260506193056 | 14 | 121 | 1.6 | 3.2 | 0.18 | 0.30 | 0.30 | 99 | 1005.8 |
| 20260506192553 | 15 | 326 | 3.2 | 3.2 | 0.00 | 0.28 | 0.28 | 99 | 1005.8 |
| 20260506192049 | 15 | 347 | 0.0 | 0.0 | 0.13 | 0.28 | 0.28 | 99 | 1005.7 |
| 20260506191546 | 15 | 266 | 3.2 | 3.2 | 0.13 | 0.28 | 0.28 | 99 | 1005.7 |
| 20260506191041 | 15 | 197 | 1.6 | 3.2 | 0.00 | 0.25 | 0.25 | 99 | 1005.7 |
| 20260506190539 | 15 | 198 | 3.2 | 3.2 | 0.18 | 0.25 | 0.25 | 99 | 1005.9 |
| 20260506190036 | 15 | 64 | 1.6 | 3.2 | 0.30 | 0.25 | 0.25 | 99 | 1005.9 |
| 20260506185533 | 15 | 172 | 4.8 | 4.8 | 0.13 | 0.23 | 0.23 | 99 | 1006.0 |
| 20260506185030 | 15 | 66 | 1.6 | 1.6 | 0.18 | 0.20 | 0.20 | 98 | 1006.2 |
| 20260506184527 | 15 | 121 | 1.6 | 1.6 | 0.18 | 0.20 | 0.20 | 98 | 1006.2 |
| 20260506184024 | 15 | 184 | 4.8 | 9.7 | 0.00 | 0.18 | 0.18 | 98 | 1006.1 |
| 20260506183520 | 15 | 58 | 3.2 | 3.2 | 0.18 | 0.18 | 0.18 | 98 | 1006.4 |
| 20260506183017 | 15 | 219 | 3.2 | 3.2 | 0.18 | 0.18 | 0.18 | 98 | 1006.0 |
| 20260506182514 | 15 | 175 | 3.2 | 3.2 | 0.00 | 0.15 | 0.15 | 97 | 1006.4 |
| 20260506182011 | 15 | 136 | 1.6 | 1.6 | 0.00 | 0.15 | 0.15 | 97 | 1006.3 |
| 20260506181509 | 15 | 21 | 0.0 | 0.0 | 0.00 | 0.15 | 0.15 | 97 | 1006.5 |
| 20260506181006 | 15 | 84 | 1.6 | 3.2 | 0.00 | 0.15 | 0.15 | 97 | 1006.1 |
| 20260506180502 | 15 | 171 | 3.2 | 3.2 | 0.00 | 0.15 | 0.15 | 97 | 1006.3 |
| 20260506175959 | 16 | 254 | 3.2 | 3.2 | 0.13 | 0.15 | 0.15 | 97 | 1005.9 |
| 20260506175455 | 16 | 202 | 6.4 | 8.0 | 0.13 | 0.15 | 0.15 | 96 | 1005.9 |
| 20260506174952 | 16 | 61 | 0.0 | 1.6 | 0.00 | 0.13 | 0.13 | 96 | 1006.3 |
| 20260506174450 | 16 | 56 | 1.6 | 1.6 | 0.18 | 0.13 | 0.13 | 95 | 1006.4 |
| 20260506173946 | 16 | 3 | 1.6 | 1.6 | 0.18 | 0.13 | 0.13 | 95 | 1006.2 |
| 20260506173444 | 16 | 27 | 0.0 | 0.0 | 0.13 | 0.10 | 0.10 | 94 | 1006.0 |
| 20260506172941 | 16 | 75 | 0.0 | 1.6 | 0.30 | 0.10 | 0.10 | 93 | 1006.5 |
| 20260506172438 | 16 | 197 | 4.8 | 4.8 | 0.18 | 0.08 | 0.08 | 92 | 1006.7 |
| 20260506171934 | 17 | 74 | 1.6 | 3.2 | 0.13 | 0.05 | 0.05 | 91 | 1006.8 |
| 20260506171432 | 17 | 246 | 0.0 | 1.6 | 0.30 | 0.05 | 0.05 | 90 | 1006.9 |
| 20260506170930 | 17 | 82 | 1.6 | 3.2 | 0.18 | 0.03 | 0.03 | 88 | 1007.1 |
| 20260506170425 | 18 | 316 | 1.6 | 1.6 | 0.00 | 0.00 | 0.00 | 86 | 1007.1 |
| 20260506165919 | 18 | 184 | 3.2 | 4.8 | 0.00 | 0.00 | 0.00 | 83 | 1007.1 |
| 20260506165417 | 18 | 131 | 1.6 | 3.2 | 0.00 | 0.00 | 0.00 | 82 | 1006.8 |
| 20260506164913 | 18 | 52 | 3.2 | 3.2 | 0.00 | 0.00 | 0.00 | 80 | 1007.1 |
| 20260506164409 | 18 | 17 | 1.6 | 1.6 | 0.00 | 0.00 | 0.00 | 80 | 1006.9 |
| 20260506163908 | 18 | 46 | 1.6 | 1.6 | 0.00 | 0.00 | 0.00 | 80 | 1006.8 |
| 20260506163401 | 18 | 322 | 1.6 | 1.6 | 0.00 | 0.00 | 0.00 | 79 | 1006.8 |
| 20260506162857 | 19 | 353 | 1.6 | 1.6 | 0.00 | 0.00 | 0.00 | 79 | 1006.8 |
| 20260506162355 | 19 | 13 | 0.0 | 0.0 | 0.00 | 0.00 | 0.00 | 78 | 1006.9 |
| 20260506161852 | 19 | 33 | 0.0 | 0.0 | 0.00 | 0.00 | 0.00 | 79 | 1007.1 |
| 20260506161350 | 19 | 349 | 0.0 | 1.6 | 0.00 | 0.00 | 0.00 | 78 | 1007.1 |
| 20260506160847 | 18 | 30 | 1.6 | 1.6 | 0.00 | 0.00 | 0.00 | 79 | 1007.4 |
| 20260506160344 | 19 | 192 | 1.6 | 3.2 | 0.00 | 0.00 | 0.00 | 78 | 1007.1 |
| 20260506155843 | 18 | 17 | 1.6 | 1.6 | 0.00 | 0.00 | 0.00 | 79 | 1007.3 |
| 20260506155339 | 18 | 39 | 1.6 | 1.6 | 0.00 | 0.00 | 0.00 | 79 | 1007.3 |
| 20260506153456 | 17 | 5 | 0.0 | 0.0 | 0.00 | 0.00 | 0.00 | 81 | 1007.7 |
| 20260506152954 | 17 | 30 | 0.0 | 1.6 | 0.00 | 0.00 | 0.00 | 81 | 1007.7 |
| 20260506152450 | 17 | 322 | 0.0 | 1.6 | 0.00 | 0.00 | 0.00 | 81 | 1007.7 |
| 20260506151949 | 17 | 2 | 0.0 | 0.0 | 0.00 | 0.00 | 0.00 | 81 | 1007.9 |
| 20260506151446 | 17 | 66 | 0.0 | 1.6 | 0.00 | 0.00 | 0.00 | 81 | 1007.9 |
| 20260506150944 | 17 | 81 | 1.6 | 1.6 | 0.00 | 0.00 | 0.00 | 81 | 1008.1 |
| 20260506150439 | 17 | 164 | 3.2 | 3.2 | 0.00 | 0.00 | 0.00 | 80 | 1008.0 |
| 20260506145937 | 17 | 254 | 1.6 | 3.2 | 0.00 | 0.00 | 0.00 | 81 | 1008.1 |
| 20260506145433 | 17 | 285 | 1.6 | 1.6 | 0.00 | 0.00 | 0.00 | 81 | 1008.1 |
| 20260506144931 | 17 | 323 | 1.6 | 1.6 | 0.00 | 0.00 | 0.00 | 82 | 1008.2 |
| 20260506144427 | 17 | 2 | 0.0 | 1.6 | 0.00 | 0.00 | 0.00 | 82 | 1008.1 |
| 20260506143925 | 17 | 26 | 0.0 | 0.0 | 0.00 | 0.00 | 0.00 | 82 | 1008.2 |
| 20260506143422 | 17 | 3 | 1.6 | 1.6 | 0.00 | 0.00 | 0.00 | 82 | 1008.2 |
| 20260506142920 | 17 | 165 | 1.6 | 1.6 | 0.00 | 0.00 | 0.00 | 82 | 1008.2 |
| 20260506142418 | 17 | 2 | 0.0 | 0.0 | 0.00 | 0.00 | 0.00 | 83 | 1008.4 |
| 20260506141916 | 17 | 10 | 0.0 | 1.6 | 0.00 | 0.00 | 0.00 | 83 | 1008.4 |
| 20260506141414 | 17 | 322 | 1.6 | 1.6 | 0.00 | 0.00 | 0.00 | 83 | 1008.0 |
| 20260506140912 | 17 | 195 | 3.2 | 4.8 | 0.00 | 0.00 | 0.00 | 83 | 1008.2 |
| 20260506140408 | 16 | 120 | 1.6 | 1.6 | 0.00 | 0.00 | 0.00 | 84 | 1008.4 |
| 20260506135905 | 16 | 164 | 3.2 | 4.8 | 0.00 | 0.00 | 0.00 | 84 | 1008.4 |
| 20260506135402 | 16 | 165 | 6.4 | 8.0 | 0.00 | 0.00 | 0.00 | 84 | 1008.2 |
| 20260506134858 | 16 | 227 | 4.8 | 4.8 | 0.00 | 0.00 | 0.00 | 84 | 1008.4 |
| 20260506134355 | 16 | 31 | 1.6 | 1.6 | 0.00 | 0.00 | 0.00 | 84 | 1008.0 |
| 20260506133852 | 16 | 196 | 4.8 | 8.0 | 0.00 | 0.00 | 0.00 | 84 | 1007.9 |
| 20260506133348 | 16 | 166 | 3.2 | 3.2 | 0.00 | 0.00 | 0.00 | 85 | 1008.1 |
| 20260506132845 | 16 | 184 | 8.0 | 9.7 | 0.00 | 0.00 | 0.00 | 86 | 1008.0 |
| 20260506132342 | 16 | 63 | 1.6 | 1.6 | 0.00 | 0.00 | 0.00 | 86 | 1008.0 |
| 20260506131840 | 16 | 180 | 1.6 | 3.2 | 0.00 | 0.00 | 0.00 | 86 | 1008.1 |
| 20260506131336 | 16 | 111 | 3.2 | 3.2 | 0.00 | 0.00 | 0.00 | 86 | 1008.2 |
| 20260506130834 | 16 | 4 | 0.0 | 0.0 | 0.00 | 0.00 | 0.00 | 87 | 1008.2 |
| 20260506130330 | 16 | 13 | 0.0 | 0.0 | 0.00 | 0.00 | 0.00 | 87 | 1008.4 |
| 20260506125828 | 16 | 11 | 0.0 | 0.0 | 0.00 | 0.00 | 0.00 | 87 | 1008.3 |
| 20260506125326 | 15 | 24 | 0.0 | 1.6 | 0.00 | 0.00 | 0.00 | 87 | 1008.3 |
| 20260506124824 | 15 | 11 | 0.0 | 1.6 | 0.00 | 0.00 | 0.00 | 88 | 1008.1 |
| 20260506124321 | 15 | 29 | 1.6 | 1.6 | 0.00 | 0.00 | 0.00 | 88 | 1008.4 |
| 20260506123818 | 15 | 299 | 0.0 | 1.6 | 0.00 | 0.00 | 0.00 | 88 | 1008.4 |
| 20260506123317 | 15 | 351 | 0.0 | 1.6 | 0.00 | 0.00 | 0.00 | 88 | 1008.7 |
| 20260506122814 | 15 | 79 | 0.0 | 0.0 | 0.00 | 0.00 | 0.00 | 89 | 1008.8 |
| 20260506122311 | 15 | 31 | 1.6 | 1.6 | 0.00 | 0.00 | 0.00 | 89 | 1008.6 |
| 20260506121809 | 15 | 155 | 1.6 | 1.6 | 0.00 | 0.00 | 0.00 | 90 | 1008.7 |
| 20260506121305 | 15 | 79 | 1.6 | 1.6 | 0.00 | 0.00 | 0.00 | 90 | 1008.4 |
| 20260506120803 | 14 | 199 | 1.6 | 3.2 | 0.00 | 0.00 | 0.00 | 90 | 1008.6 |
| 20260506120300 | 14 | 27 | 0.0 | 0.0 | 0.00 | 0.00 | 0.00 | 91 | 1008.4 |
| 20260506115758 | 14 | 21 | 0.0 | 0.0 | 0.00 | 0.00 | 0.00 | 91 | 1008.6 |
| 20260506115256 | 14 | 220 | 1.6 | 1.6 | 0.00 | 0.00 | 0.00 | 91 | 1008.8 |
| 20260506114753 | 14 | 351 | 1.6 | 1.6 | 0.00 | 0.00 | 0.00 | 92 | 1008.4 |
| 20260506114251 | 13 | 148 | 1.6 | 1.6 | 0.00 | 0.00 | 0.00 | 92 | 1008.3 |
| 20260506113749 | 13 | 12 | 1.6 | 1.6 | 0.00 | 0.00 | 0.00 | 92 | 1008.4 |
| 20260506113246 | 13 | 348 | 1.6 | 1.6 | 0.00 | 0.00 | 0.00 | 93 | 1008.6 |
| 20260506112742 | 13 | 43 | 0.0 | 1.6 | 0.00 | 0.00 | 0.00 | 93 | 1008.8 |
| 20260506112240 | 13 | 47 | 0.0 | 1.6 | 0.00 | 0.00 | 0.00 | 93 | 1008.5 |
| 20260506111737 | 13 | 157 | 1.6 | 3.2 | 0.00 | 0.00 | 0.00 | 93 | 1008.6 |
| 20260506111235 | 13 | 54 | 1.6 | 3.2 | 0.00 | 0.00 | 0.00 | 93 | 1008.6 |
| 20260506110732 | 13 | 6 | 0.0 | 1.6 | 0.00 | 0.00 | 0.00 | 93 | 1008.6 |
| 20260506110230 | 13 | 97 | 1.6 | 1.6 | 0.00 | 0.00 | 0.00 | 93 | 1008.7 |
| 20260506105726 | 13 | 187 | 1.6 | 3.2 | 0.00 | 0.00 | 0.00 | 93 | 1009.1 |
| 20260506105223 | 12 | 76 | 1.6 | 1.6 | 0.00 | 0.00 | 0.00 | 95 | 1009.0 |
| 20260506104721 | 12 | 23 | 0.0 | 0.0 | 0.00 | 0.00 | 0.00 | 95 | 1008.9 |
| 20260506104219 | 12 | 22 | 0.0 | 0.0 | 0.00 | 0.00 | 0.00 | 95 | 1009.0 |
| 20260506103715 | 12 | 53 | 1.6 | 1.6 | 0.00 | 0.00 | 0.00 | 95 | 1008.6 |
| 20260506103212 | 12 | 61 | 1.6 | 1.6 | 0.00 | 0.00 | 0.00 | 95 | 1008.8 |
| 20260506102710 | 12 | 68 | 0.0 | 1.6 | 0.00 | 0.00 | 0.00 | 95 | 1008.8 |
| 20260506102208 | 12 | 76 | 1.6 | 1.6 | 0.00 | 0.00 | 0.00 | 95 | 1008.8 |
| 20260506101705 | 12 | 58 | 0.0 | 1.6 | 0.00 | 0.00 | 0.00 | 95 | 1008.6 |
| 20260506101201 | 12 | 59 | 0.0 | 1.6 | 0.00 | 0.00 | 0.00 | 96 | 1008.6 |
| 20260506100659 | 12 | 57 | 0.0 | 0.0 | 0.00 | 0.00 | 0.00 | 96 | 1008.5 |
| 20260506100157 | 12 | 54 | 1.6 | 1.6 | 0.00 | 0.00 | 0.00 | 95 | 1008.4 |
| 20260506095656 | 12 | 47 | 0.0 | 1.6 | 0.00 | 0.00 | 0.00 | 95 | 1008.5 |
| 20260506095152 | 12 | 31 | 0.0 | 0.0 | 0.00 | 0.00 | 0.00 | 95 | 1008.4 |
| 20260506094649 | 12 | 46 | 0.0 | 0.0 | 0.00 | 0.00 | 0.00 | 95 | 1008.4 |
| 20260506094147 | 12 | 65 | 1.6 | 1.6 | 0.00 | 0.00 | 0.00 | 95 | 1008.1 |
| 20260506093646 | 12 | 46 | 0.0 | 1.6 | 0.00 | 0.00 | 0.00 | 95 | 1008.6 |
| 20260506093142 | 12 | 43 | 0.0 | 0.0 | 0.00 | 0.00 | 0.00 | 94 | 1008.6 |
| 20260506092640 | 12 | 47 | 0.0 | 0.0 | 0.00 | 0.00 | 0.00 | 94 | 1008.7 |
| 20260506092137 | 12 | 29 | 0.0 | 0.0 | 0.00 | 0.00 | 0.00 | 94 | 1008.4 |
| 20260506091635 | 12 | 30 | 0.0 | 0.0 | 0.00 | 0.00 | 0.00 | 94 | 1008.5 |
| 20260506091132 | 12 | 138 | 1.6 | 1.6 | 0.00 | 0.00 | 0.00 | 94 | 1008.5 |
| 20260506090630 | 12 | 43 | 0.0 | 1.6 | 0.00 | 0.00 | 0.00 | 94 | 1008.6 |
| 20260506090126 | 12 | 69 | 1.6 | 1.6 | 0.00 | 0.00 | 0.00 | 94 | 1008.3 |
| 20260506085623 | 12 | 14 | 0.0 | 0.0 | 0.00 | 0.00 | 0.00 | 94 | 1008.6 |
| 20260506085119 | 12 | 11 | 0.0 | 0.0 | 0.00 | 0.00 | 0.00 | 93 | 1008.3 |
| 20260506084616 | 12 | 352 | 1.6 | 1.6 | 0.00 | 0.00 | 0.00 | 93 | 1008.5 |
| 20260506084113 | 12 | 16 | 0.0 | 0.0 | 0.00 | 0.00 | 0.00 | 93 | 1008.5 |
| 20260506083610 | 12 | 16 | 0.0 | 0.0 | 0.00 | 0.00 | 0.00 | 92 | 1008.6 |
| 20260506083107 | 12 | 10 | 0.0 | 0.0 | 0.00 | 0.00 | 0.00 | 92 | 1008.6 |
| 20260506082604 | 13 | 13 | 0.0 | 0.0 | 0.00 | 0.00 | 0.00 | 91 | 1008.7 |
| 20260506082100 | 13 | 24 | 0.0 | 0.0 | 0.00 | 0.00 | 0.00 | 91 | 1008.7 |
| 20260506081558 | 13 | 27 | 1.6 | 1.6 | 0.00 | 0.00 | 0.00 | 91 | 1008.7 |
| 20260506081055 | 13 | 263 | 3.2 | 3.2 | 0.00 | 0.00 | 0.00 | 91 | 1008.5 |
| 20260506080553 | 13 | 336 | 1.6 | 1.6 | 0.00 | 0.00 | 0.00 | 90 | 1008.4 |
| 20260506073033 | 13 | 16 | 0.0 | 0.0 | 0.00 | 0.00 | 0.00 | 88 | 1008.5 |
| 20260506072530 | 13 | 4 | 0.0 | 0.0 | 0.00 | 0.00 | 0.00 | 87 | 1008.5 |
| 20260506072028 | 13 | 343 | 1.6 | 1.6 | 0.00 | 0.00 | 0.00 | 87 | 1008.7 |
| 20260506071526 | 13 | 12 | 0.0 | 0.0 | 0.00 | 0.00 | 0.00 | 86 | 1008.6 |
| 20260506071023 | 14 | 340 | 1.6 | 1.6 | 0.00 | 0.00 | 0.00 | 86 | 1008.4 |
| 20260506070520 | 14 | 34 | 0.0 | 0.0 | 0.00 | 0.00 | 0.00 | 84 | 1008.4 |
| 20260506062457 | 13 | 21 | 0.0 | 0.0 | 0.00 | 0.00 | 0.00 | 85 | 1008.4 |
| 20260506061954 | 14 | 21 | 0.0 | 0.0 | 0.00 | 0.00 | 0.00 | 84 | 1008.2 |
| 20260506061450 | 14 | 21 | 0.0 | 0.0 | 0.00 | 0.00 | 0.00 | 83 | 1008.3 |
| 20260506060948 | 14 | 19 | 0.0 | 0.0 | 0.00 | 0.00 | 0.00 | 83 | 1008.1 |
| 20260506060446 | 14 | 51 | 1.6 | 1.6 | 0.00 | 0.00 | 0.00 | 83 | 1008.3 |
| 20260506050915 | 15 | 17 | 1.6 | 1.6 | 0.00 | 0.00 | 0.00 | 80 | 1008.5 |
| 20260506050412 | 15 | 12 | 0.0 | 0.0 | 0.00 | 0.00 | 0.00 | 80 | 1008.5 |
| 20260506044903 | 15 | 0 | 0.0 | 0.0 | 0.00 | 0.00 | 0.00 | 80 | 1008.7 |
| 20260506044401 | 15 | 0 | 0.0 | 0.0 | 0.00 | 0.00 | 0.00 | 80 | 1008.6 |
| 20260506043857 | 15 | 0 | 1.6 | 1.6 | 0.00 | 0.00 | 0.00 | 80 | 1008.7 |
| 20260506043354 | 15 | 356 | 0.0 | 1.6 | 0.00 | 0.00 | 0.00 | 79 | 1008.5 |
| 20260506042852 | 15 | 15 | 0.0 | 0.0 | 0.00 | 0.00 | 0.00 | 78 | 1008.7 |
| 20260506042351 | 15 | 13 | 0.0 | 0.0 | 0.00 | 0.00 | 0.00 | 78 | 1008.4 |
| 20260506041850 | 15 | 15 | 0.0 | 0.0 | 0.00 | 0.00 | 0.00 | 79 | 1008.5 |
| 20260506041346 | 15 | 17 | 1.6 | 1.6 | 0.00 | 0.00 | 0.00 | 78 | 1008.8 |
| 20260506040843 | 15 | 3 | 1.6 | 1.6 | 0.00 | 0.00 | 0.00 | 77 | 1008.8 |
| 20260506040341 | 15 | 357 | 0.0 | 1.6 | 0.00 | 0.00 | 0.00 | 77 | 1008.7 |
| 20260506035837 | 15 | 350 | 1.6 | 1.6 | 0.00 | 0.00 | 0.00 | 77 | 1008.8 |
| 20260506035335 | 15 | 6 | 0.0 | 1.6 | 0.00 | 0.00 | 0.00 | 76 | 1008.7 |
| 20260506034832 | 15 | 3 | 0.0 | 0.0 | 0.00 | 0.00 | 0.00 | 77 | 1008.7 |
| 20260506034329 | 15 | 10 | 0.0 | 0.0 | 0.00 | 0.00 | 0.00 | 76 | 1008.5 |
| 20260506033826 | 15 | 342 | 1.6 | 1.6 | 0.00 | 0.00 | 0.00 | 76 | 1008.7 |
| 20260506033323 | 16 | 1 | 0.0 | 1.6 | 0.00 | 0.00 | 0.00 | 75 | 1008.7 |
| 20260506032819 | 16 | 20 | 0.0 | 0.0 | 0.00 | 0.00 | 0.00 | 74 | 1008.8 |
| 20260506032316 | 16 | 354 | 0.0 | 0.0 | 0.00 | 0.00 | 0.00 | 74 | 1008.5 |
| 20260506031813 | 16 | 12 | 0.0 | 0.0 | 0.00 | 0.00 | 0.00 | 73 | 1008.6 |
| 20260506031311 | 16 | 17 | 0.0 | 0.0 | 0.00 | 0.00 | 0.00 | 73 | 1008.9 |
| 20260506030808 | 16 | 304 | 1.6 | 1.6 | 0.00 | 0.00 | 0.00 | 73 | 1008.6 |
| 20260506030306 | 16 | 13 | 0.0 | 0.0 | 0.00 | 0.00 | 0.00 | 72 | 1008.6 |
| 20260506025802 | 16 | 343 | 1.6 | 1.6 | 0.00 | 0.00 | 0.00 | 72 | 1008.9 |
| 20260506025259 | 16 | 319 | 1.6 | 1.6 | 0.00 | 0.00 | 0.00 | 72 | 1008.8 |
| 20260506024756 | 16 | 346 | 1.6 | 1.6 | 0.00 | 0.00 | 0.00 | 71 | 1008.7 |
| 20260506024253 | 17 | 24 | 0.0 | 1.6 | 0.00 | 0.00 | 0.00 | 71 | 1008.8 |
| 20260506023749 | 17 | 338 | 1.6 | 1.6 | 0.00 | 0.00 | 0.00 | 71 | 1008.6 |